Regional Weather Roundup
Issued by NWS

Home | Current Version | Previous Version | Graphics & Text | Print | Product List | Glossary On
Versions: 1 2 3 4 5 6 7 8 9 10 11 12 13 14 15 16 17 18 19 20 21 22 23 24 25 26 27 28 29 30 31 32 33 34 35 36 37 38 39 40 41 42 43 44 45 46 47 48 49 50
000
ASUS43 KLOT 012200
RWRIL

ILLINOIS REGIONAL WEATHER ROUNDUP
NATIONAL WEATHER SERVICE CHICAGO/ROMEOVILLE IL
400 PM CST SUN MAR 01 2015

NOTE: "FAIR" INDICATES FEW OR NO CLOUDS BELOW 12,000 FEET WITH NO
SIGNIFICANT WEATHER AND/OR OBSTRUCTIONS TO VISIBILITY.

* THESE STATIONS ARE NOT UNDER NWS QUALITY CONTROL. THEY ALSO MAY NOT
  REPORT WEATHER SUCH AS PRECIPITATION OR FOG.

ILZ001-002-007-009-015-016-024-012300-
NORTHWEST ILLINOIS

CITY           SKY/WX    TMP DP  RH WIND       PRES   REMARKS
MOLINE         SUNNY     27  15  61 W13       30.33R WCI  16
STERLING*      SUNNY     27  18  69 W15       30.32R WCI  15
$$

ILZ003-004-008-010-011-017-018-012300-
NORTH CENTRAL ILLINOIS

CITY           SKY/WX    TMP DP  RH WIND       PRES   REMARKS
ROCKFORD       PTSUNNY   25  14  63 W15       30.29S WCI  13
FREEPORT*      MOSUNNY   24  16  73 SW8       30.29S WCI  15
DE KALB*       PTSUNNY   21  15  76 SW10      30.28S WCI  10
$$

ILZ005-006-012>014-019>023-012300-
NORTHEAST ILLINOIS

CITY           SKY/WX    TMP DP  RH WIND       PRES   REMARKS
CHICAGO-OHARE  PTSUNNY   24  15  68 W13       30.26F WCI  12
CHICAGO-MIDWAY PTSUNNY   27  17  66 SW12      30.28F WCI  17
AURORA         PTSUNNY   24  15  68 W15       30.29S WCI  11
LANSING*       PTSUNNY   25  18  74 SW12      30.28F WCI  15
WAUKEGAN       MOSUNNY   25  15  66 SW8       30.23F WCI  16
DUPAGE AIRPORT PTSUNNY   22  15  75 W14       30.27S WCI   9
WHEELING       MOSUNNY   26  14  60 W13       30.27F WCI  15
NORTHERLY ISL    N/A     28  17  63 W9          N/A  WCI  19
$$

LMZ740>746-012300-
SOUTHERN LAKE MICHIGAN

STATION/POSITION SKY/WX   TEMP    WIND        PRES    VSBY  WAVE
                          AIR SEA DIR/SP/G                  HT/PER
                          (F)     (DEG/KT/KT) (MB)    (MI)  (FT/S)
WAUKEGAN HARBOR            25     240/ 14/ 20   N/A
HARRISON CRIB              26     250/ 10/ 12   N/A
BURNHAM HARBOR             28     260/  8/  9   N/A
CALUMET HARBOR             27     210/  7/ 12 1023.7F
MICHIGAN CITY              23     250/  7/  8   N/A
$$

ILZ025>027-034>036-040-047-049-050-058-095>099-012300-
WEST-CENTRAL ILLINOIS

CITY           SKY/WX    TMP DP  RH WIND       PRES   REMARKS
QUINCY         MOSUNNY   27  18  69 NW8       30.35S WCI  19
MACOMB*        PTSUNNY   24  20  84 N3        30.37S
$$

ILZ028>032-037-038-041>044-048-051>054-059>061-012300-
CENTRAL ILLINOIS

CITY           SKY/WX    TMP DP  RH WIND       PRES   REMARKS
BLOOMINGTON    PTSUNNY   27  21  80 NW6       30.32F WCI  20
DECATUR        MOSUNNY   27  20  75 NW7       30.32F WCI  19
PEORIA         MOSUNNY   28  18  66 W9        30.34S WCI  19
SPRINGFIELD    PTSUNNY   29  20  69 W7        30.34F WCI  22
TAYLORVILLE    NOT AVBL
$$

ILZ033-039-045-046-055>057-062-063-012300-
EAST-CENTRAL ILLINOIS

CITY           SKY/WX    TMP DP  RH WIND       PRES   REMARKS
CHAMPAIGN      CLOUDY    26  20  77 NW7       30.31F WCI  18
MATTOON        MOSUNNY   27  22  81 NW8       30.31F WCI  19
$$

ILZ079-100>102-012300-
SOUTHWEST ILLINOIS

CITY           SKY/WX    TMP DP  RH WIND       PRES   REMARKS
ALTON          CLOUDY    30  23  74 NW6       30.38  WCI  24
BELLEVILLE     CLOUDY    31  28  89 NW8       30.35R WCI  24
CAHOKIA*       CLOUDY    32  26  78 N8        30.36F WCI  25
$$

ILZ064>066-069>071-074>076-080>082-084>086-088>090-092>094-012300-
SOUTH-CENTRAL ILLINOIS

CITY           SKY/WX    TMP DP  RH WIND       PRES   REMARKS
CARBONDALE     CLOUDY    34  29  82 NW6       30.34F WCI  29
MARION         CLOUDY    36  32  87 NW9       30.35S WCI  29
MT. VERNON     CLOUDY    32  27  80 NW5       30.36R WCI  27
$$

ILZ067-068-072-073-078-083-087-091-012300-
SOUTHEAST ILLINOIS

CITY           SKY/WX    TMP DP  RH WIND       PRES   REMARKS
LAWRENCEVILLE  MIX PCPN  33  30  88 W6        30.32F FOG     WCI  28
CARMI*         CLOUDY    34  34  98 W5        30.32F FOG     WCI  30
$$

ABBREVIATIONS USED IN REMARKS
   TC - TEMPERATURE IN CELSIUS
  WCI - WIND CHILL INDEX
   HX - HEAT INDEX
  VSB - VISIBILITY
$$



USA.gov is the U.S. government's official web portal to all federal, state and local government web resources and services.